This demonstration page uses our WeatherBlox Daily Observations layout. Learn more.

Left ArrowRight Arrow

38.20091, -84.87328

Hourly Observations for August 10, 2017

Temp ( °F °C ) Dew Point ( °F °C ) Humidity (%) Winds ( mph kmh ) Pressure ( in mb ) Visibility ( mi km ) Precip ( " mm )
12:53 am 00:53 Mostly Cloudy 68 20 58 14.4 70 70 Calm 30.12 1020 10 16 0.00 0.00
1:53 am 01:53 Clear 68 20 57 13.9 68 68 ENE 5 7 30.11 1020 10 16 0.00 0.00
2:53 am 02:53 Mostly Cloudy 67 19.4 58 14.4 73 73 Calm 30.09 1019 10 16 0.00 0.00
3:53 am 03:53 Mostly Cloudy 66 18.9 59 15 78 78 N 3 6 30.09 1019 10 16 0.00 0.00
4:53 am 04:53 Mostly Cloudy 68 20 59 15 73 73 Calm 30.09 1019 10 16 0.00 0.00
5:53 am 05:53 Partly Cloudy 66 18.9 60 15.6 81 81 Calm 30.09 1019 10 16 0.00 0.00
6:53 am 06:53 Sunny 65 18.3 60 15.6 84 84 Calm 30.09 1019 10 16 0.00 0.00
7:53 am 07:53 Sunny 65 18.3 59 15 81 81 Calm 30.11 1020 10 16 0.00 0.00
8:53 am 08:53 Sunny 71 21.7 66 18.9 84 84 SSW 6 9 30.11 1020 10 16 0.00 0.00
9:53 am 09:53 Sunny 74 23.3 67 19.4 79 79 SW 8 13 30.11 1020 10 16 0.00 0.00
10:53 am 10:53 Mostly Sunny 76 24.4 66 18.9 72 72 VRB 3 6 30.12 1020 10 16 0.00 0.00
11:53 am 11:53 Sunny 80 26.7 63 17.2 56 56 NW 9 15 30.12 1020 10 16 0.00 0.00
12:53 pm 12:53 Mostly Sunny 82 27.8 61 16.1 49 49 VRB 6 9 30.11 1020 10 16 0.00 0.00
1:53 pm 13:53 Sunny 83 28.3 55 12.8 38 38 WNW 5 7 30.11 1020 10 16 0.00 0.00
2:53 pm 14:53 Sunny 84 28.9 55 12.8 37 37 NW 9 15 30.10 1019 10 16 0.00 0.00
3:53 pm 15:53 Sunny 84 28.9 55 12.8 37 37 NNW 6 9 30.08 1019 10 16 0.00 0.00
4:53 pm 16:53 Mostly Sunny 83 28.3 56 13.3 40 40 WNW 5 7 30.07 1018 10 16 0.00 0.00
5:53 pm 17:53 Sunny 84 28.9 57 13.9 40 40 NW 7 11 30.05 1018 10 16 0.00 0.00
6:53 pm 18:53 Sunny 84 28.9 57 13.9 40 40 N 3 6 30.04 1017 10 16 0.00 0.00
7:53 pm 19:53 Sunny 82 27.8 57 13.9 42 42 Calm 30.04 1017 10 16 0.00 0.00
8:53 pm 20:53 Clear 73 22.8 63 17.2 71 71 Calm 30.05 1018 10 16 0.00 0.00
9:53 pm 21:53 Clear 71 21.7 61 16.1 71 71 Calm 30.06 1018 10 16 0.00 0.00
10:53 pm 22:53 Clear 69 20.6 61 16.1 76 76 Calm 30.05 1018 10 16 0.00 0.00
11:53 pm 23:53 Clear 68 20 62 16.7 81 81 NNW 3 6 30.06 1018 10 16 0.00 0.00

Powered by AerisWeather